| time (UTC) | temp C | wind direction | speed KPH | gust KPH | rain 1hr cm | rain 24hr cm | rain mn cm | humidity % | barometer mb |
| 20260508004545 | 13 | 297 | 0.0 | 0.0 | 0.00 | 0.00 | 0.00 | 82 | 1015.5 |
| 20260508003043 | 13 | 297 | 0.0 | 0.0 | 0.00 | 0.00 | 0.00 | 81 | 1015.6 |
| 20260508001541 | 13 | 297 | 0.0 | 0.0 | 0.00 | 0.00 | 0.00 | 82 | 1015.6 |
| 20260508000039 | 13 | 297 | 0.0 | 0.0 | 0.00 | 0.00 | 0.00 | 81 | 1015.7 |
| 20260507234538 | 13 | 297 | 0.0 | 0.0 | 0.00 | 0.00 | 0.00 | 80 | 1015.9 |
| 20260507233040 | 13 | 297 | 0.0 | 0.0 | 0.00 | 0.00 | 0.00 | 80 | 1015.9 |
| 20260507231537 | 13 | 297 | 1.6 | 11.3 | 0.00 | 0.00 | 0.00 | 82 | 1016.0 |
| 20260507230033 | 13 | 305 | 0.0 | 9.7 | 0.00 | 0.00 | 0.00 | 83 | 1016.1 |
| 20260507224535 | 13 | 310 | 0.0 | 8.0 | 0.00 | 0.00 | 0.00 | 85 | 1016.1 |
| 20260507223029 | 13 | 335 | 0.0 | 0.0 | 0.00 | 0.00 | 0.00 | 87 | 1016.3 |
| 20260507221528 | 13 | 335 | 0.0 | 0.0 | 0.00 | 0.00 | 0.00 | 87 | 1016.3 |
| 20260507220027 | 13 | 335 | 0.0 | 0.0 | 0.00 | 0.00 | 0.00 | 87 | 1016.5 |
| 20260507214528 | 13 | 335 | 0.0 | 0.0 | 0.00 | 0.00 | 0.00 | 86 | 1016.6 |
| 20260507213025 | 13 | 335 | 0.0 | 0.0 | 0.00 | 0.00 | 0.00 | 86 | 1016.5 |
| 20260507211524 | 13 | 335 | 0.0 | 0.0 | 0.00 | 0.00 | 0.00 | 86 | 1016.5 |
| 20260507210038 | 13 | 335 | 0.0 | 0.0 | 0.00 | 0.00 | 0.00 | 85 | 1016.5 |
| 20260507204523 | 14 | 335 | 0.0 | 0.0 | 0.00 | 0.00 | 0.00 | 85 | 1016.5 |
| 20260507203022 | 14 | 335 | 0.0 | 0.0 | 0.00 | 0.00 | 0.00 | 84 | 1016.4 |
| 20260507201522 | 14 | 19 | 0.0 | 0.0 | 0.00 | 0.00 | 0.00 | 84 | 1016.3 |
| 20260507200021 | 14 | 87 | 0.0 | 0.0 | 0.00 | 0.00 | 0.00 | 84 | 1016.1 |
| 20260507194524 | 14 | 87 | 0.0 | 0.0 | 0.00 | 0.00 | 0.00 | 84 | 1015.9 |
| 20260507193023 | 15 | 102 | 0.0 | 0.0 | 0.00 | 0.00 | 0.00 | 83 | 1015.6 |
| 20260507191520 | 15 | 62 | 0.0 | 9.7 | 0.00 | 0.00 | 0.00 | 82 | 1015.5 |
| 20260507190022 | 15 | 70 | 0.0 | 4.8 | 0.00 | 0.00 | 0.00 | 81 | 1015.2 |
| 20260507184519 | 15 | 77 | 0.0 | 8.0 | 0.00 | 0.00 | 0.00 | 81 | 1015.2 |
| 20260507183025 | 15 | 67 | 0.0 | 6.4 | 0.00 | 0.00 | 0.00 | 80 | 1015.0 |
| 20260507181518 | 15 | 86 | 0.0 | 6.4 | 0.00 | 0.00 | 0.00 | 79 | 1014.9 |
| 20260507180017 | 15 | 71 | 0.0 | 4.8 | 0.00 | 0.00 | 0.00 | 78 | 1014.8 |
| 20260507174517 | 15 | 100 | 0.0 | 14.5 | 0.00 | 0.00 | 0.00 | 77 | 1014.8 |
| 20260507173020 | 15 | 65 | 4.8 | 16.1 | 0.00 | 0.00 | 0.00 | 77 | 1014.8 |
| 20260507171516 | 15 | 116 | 1.6 | 14.5 | 0.00 | 0.00 | 0.00 | 77 | 1014.7 |
| 20260507170016 | 16 | 83 | 3.2 | 17.7 | 0.00 | 0.00 | 0.00 | 76 | 1014.7 |
| 20260507164514 | 16 | 71 | 4.8 | 17.7 | 0.00 | 0.00 | 0.00 | 76 | 1014.6 |
| 20260507163015 | 16 | 71 | 6.4 | 17.7 | 0.00 | 0.00 | 0.00 | 75 | 1014.4 |
| 20260507161515 | 16 | 103 | 1.6 | 12.9 | 0.00 | 0.00 | 0.00 | 74 | 1014.4 |
| 20260507160020 | 16 | 61 | 4.8 | 16.1 | 0.00 | 0.00 | 0.00 | 74 | 1014.4 |
| 20260507154612 | 16 | 90 | 0.0 | 14.5 | 0.00 | 0.00 | 0.00 | 73 | 1014.5 |
| 20260507153028 | 16 | 92 | 1.6 | 16.1 | 0.00 | 0.00 | 0.00 | 73 | 1014.7 |
| 20260507151510 | 16 | 75 | 1.6 | 14.5 | 0.00 | 0.00 | 0.00 | 72 | 1014.8 |
| 20260507150008 | 16 | 63 | 1.6 | 14.5 | 0.00 | 0.00 | 0.00 | 71 | 1014.8 |
| 20260507144507 | 16 | 96 | 3.2 | 14.5 | 0.00 | 0.00 | 0.00 | 70 | 1014.9 |
| 20260507143012 | 17 | 112 | 0.0 | 16.1 | 0.00 | 0.00 | 0.00 | 69 | 1014.8 |
| 20260507141505 | 17 | 75 | 4.8 | 19.3 | 0.00 | 0.00 | 0.00 | 69 | 1015.0 |
| 20260507140009 | 17 | 65 | 3.2 | 17.7 | 0.00 | 0.00 | 0.00 | 68 | 1015.0 |
| 20260507134503 | 16 | 129 | 9.7 | 16.1 | 0.00 | 0.00 | 0.00 | 67 | 1015.4 |
| 20260507133002 | 16 | 69 | 3.2 | 17.7 | 0.00 | 0.00 | 0.00 | 68 | 1015.6 |
| 20260507131501 | 16 | 147 | 4.8 | 16.1 | 0.00 | 0.00 | 0.00 | 69 | 1015.7 |
| 20260507130100 | 16 | 98 | 1.6 | 16.1 | 0.00 | 0.00 | 0.00 | 71 | 1015.7 |
| 20260507130001 | 16 | 101 | 4.8 | 16.1 | 0.00 | 0.00 | 0.00 | 71 | 1015.8 |
| 20260507124606 | 16 | 122 | 1.6 | 16.1 | 0.00 | 0.00 | 0.00 | 72 | 1016.0 |
| 20260507123100 | 16 | 38 | 4.8 | 19.3 | 0.00 | 0.00 | 0.00 | 71 | 1016.1 |
| 20260507121559 | 16 | 176 | 3.2 | 17.7 | 0.00 | 0.00 | 0.00 | 72 | 1016.0 |
| 20260507120059 | 16 | 125 | 1.6 | 17.7 | 0.00 | 0.00 | 0.00 | 71 | 1016.2 |
| 20260507114559 | 16 | 59 | 3.2 | 19.3 | 0.00 | 0.00 | 0.00 | 71 | 1016.2 |
| 20260507113101 | 17 | 103 | 0.0 | 16.1 | 0.00 | 0.00 | 0.00 | 70 | 1016.2 |
| 20260507111555 | 17 | 47 | 6.4 | 20.9 | 0.00 | 0.00 | 0.00 | 72 | 1016.1 |
| 20260507110055 | 17 | 90 | 4.8 | 16.1 | 0.00 | 0.00 | 0.00 | 72 | 1016.4 |
| 20260507104552 | 16 | 90 | 3.2 | 17.7 | 0.00 | 0.00 | 0.00 | 72 | 1016.5 |
| 20260507103049 | 16 | 105 | 4.8 | 16.1 | 0.00 | 0.00 | 0.00 | 75 | 1016.7 |
| 20260507101553 | 15 | 116 | 4.8 | 16.1 | 0.00 | 0.00 | 0.00 | 72 | 1016.8 |
| 20260507100048 | 15 | 72 | 0.0 | 16.1 | 0.00 | 0.00 | 0.00 | 75 | 1016.9 |
| 20260507094546 | 15 | 105 | 0.0 | 16.1 | 0.00 | 0.00 | 0.00 | 77 | 1016.8 |
| 20260507093051 | 15 | 75 | 0.0 | 12.9 | 0.00 | 0.00 | 0.00 | 75 | 1016.9 |
| 20260507091544 | 16 | 89 | 4.8 | 16.1 | 0.00 | 0.00 | 0.00 | 76 | 1016.8 |
| 20260507090041 | 15 | 85 | 3.2 | 14.5 | 0.00 | 0.00 | 0.00 | 79 | 1016.7 |
| 20260507084540 | 14 | 101 | 3.2 | 16.1 | 0.00 | 0.00 | 0.00 | 83 | 1016.5 |
| 20260507083038 | 14 | 91 | 3.2 | 12.9 | 0.00 | 0.00 | 0.00 | 84 | 1016.6 |
| 20260507081537 | 14 | 78 | 4.8 | 16.1 | 0.00 | 0.00 | 0.00 | 83 | 1016.6 |
| 20260507080040 | 15 | 119 | 0.0 | 12.9 | 0.00 | 0.00 | 0.00 | 82 | 1016.6 |
| 20260507074536 | 15 | 84 | 1.6 | 16.1 | 0.00 | 0.00 | 0.00 | 81 | 1016.7 |
| 20260507073034 | 15 | 70 | 0.0 | 12.9 | 0.00 | 0.00 | 0.00 | 82 | 1016.6 |
| 20260507071558 | 15 | 98 | 0.0 | 6.4 | 0.00 | 0.00 | 0.00 | 82 | 1016.6 |
| 20260507070033 | 15 | 74 | 0.0 | 9.7 | 0.00 | 0.00 | 0.00 | 81 | 1016.5 |
| 20260507064530 | 14 | 27 | 0.0 | 6.4 | 0.00 | 0.00 | 0.00 | 82 | 1016.2 |
| 20260507063026 | 14 | 15 | 0.0 | 0.0 | 0.00 | 0.00 | 0.00 | 83 | 1016.2 |
| 20260507061525 | 13 | 347 | 0.0 | 4.8 | 0.00 | 0.00 | 0.00 | 83 | 1016.1 |
| 20260507060035 | 13 | 42 | 0.0 | 0.0 | 0.00 | 0.00 | 0.00 | 84 | 1016.0 |
| 20260507054522 | 13 | 286 | 0.0 | 6.4 | 0.00 | 0.00 | 0.00 | 86 | 1015.9 |
| 20260507053022 | 13 | 309 | 0.0 | 0.0 | 0.00 | 0.00 | 0.00 | 87 | 1015.8 |
| 20260507051529 | 12 | 315 | 0.0 | 0.0 | 0.00 | 0.00 | 0.00 | 87 | 1015.7 |
| 20260507050022 | 12 | 321 | 0.0 | 0.0 | 0.00 | 0.00 | 0.00 | 88 | 1015.4 |
| 20260507044521 | 12 | 293 | 0.0 | 0.0 | 0.00 | 0.00 | 0.00 | 87 | 1015.4 |
| 20260507043018 | 12 | 322 | 0.0 | 0.0 | 0.00 | 0.00 | 0.00 | 87 | 1015.4 |
| 20260507041517 | 12 | 306 | 0.0 | 0.0 | 0.00 | 0.00 | 0.00 | 87 | 1015.5 |
| 20260507040017 | 12 | 340 | 0.0 | 0.0 | 0.00 | 0.00 | 0.00 | 86 | 1015.4 |
| 20260507034529 | 12 | 320 | 0.0 | 0.0 | 0.00 | 0.00 | 0.00 | 85 | 1015.4 |
| 20260507033029 | 12 | 317 | 0.0 | 0.0 | 0.00 | 0.00 | 0.00 | 85 | 1015.5 |
| 20260507031513 | 13 | 336 | 0.0 | 0.0 | 0.00 | 0.00 | 0.00 | 84 | 1015.6 |
| 20260507030014 | 12 | 342 | 0.0 | 0.0 | 0.00 | 0.00 | 0.00 | 84 | 1015.5 |
| 20260507024513 | 12 | 347 | 0.0 | 0.0 | 0.00 | 0.00 | 0.00 | 85 | 1015.6 |
| 20260507023020 | 12 | 325 | 0.0 | 0.0 | 0.00 | 0.00 | 0.00 | 86 | 1015.4 |
| 20260507021511 | 12 | 325 | 0.0 | 0.0 | 0.00 | 0.00 | 0.00 | 86 | 1015.5 |
| 20260507020017 | 12 | 340 | 0.0 | 0.0 | 0.00 | 0.00 | 0.00 | 86 | 1015.5 |
| 20260507014512 | 12 | 334 | 0.0 | 0.0 | 0.00 | 0.00 | 0.00 | 87 | 1015.6 |
| 20260507013008 | 13 | 296 | 0.0 | 0.0 | 0.00 | 0.00 | 0.00 | 87 | 1015.6 |
| 20260507011506 | 13 | 301 | 0.0 | 0.0 | 0.00 | 0.00 | 0.00 | 88 | 1015.7 |
| 20260507010004 | 13 | 323 | 0.0 | 0.0 | 0.00 | 0.00 | 0.00 | 88 | 1015.7 |